Other Surface Observations
Issued by NWS

Home | Current Version | Previous Version | Text Only | Print | Product List | Glossary On
Versions: 1 2 3 4 5 6 7 8 9 10 11 12 13 14 15 16 17 18 19 20 21 22 23 24 25 26 27 28 29 30 31 32 33 34 35 36 37 38 39 40 41 42 43 44 45 46 47 48 49 50
000
SXUS52 KTAE 251919
OSOTAE
OSOTAE
North Florida/South Alabama/Southwest Georgia Weather Roundup
National Weather Service Tallahassee Florida
300 PM EDT WED MAY 25 2016

Note: "fair" indicates few or no clouds below 12,000 feet with no
significant weather and/or obstructions to visibility.

!FLZ017-115-028-034-025-252000
...North Florida...

CITY           SKY/WX    TMP DP  RH WIND       PRES   REMARKS
TALLAHASSEE    PTSUNNY   90  60  36 S9        30.18F
APALACHICOLA   MOSUNNY   82  73  74 VRB7      30.20R
PERRY          PTSUNNY   87  68  54 S7        30.19F HX  90
CROSS CITY       N/A     91  55  29 E7        30.17F
JACKSONVILLE   PTSUNNY   86  54  33 E12       30.21S
$$

!FLZ112-006-005-002-011-252000
...Florida Panhandle...

CITY           SKY/WX    TMP DP  RH WIND       PRES   REMARKS
MARIANNA       CLOUDY    87  64  46 S7        30.17F
BONIFAY        FAIR      87  64  46 CALM      30.18F
PANAMA CITY NW FAIR      83  70  64 S13       30.18F
TYNDALL AFB    MOSUNNY   82  73  72 S15       30.18F
TYND DRONE APT FAIR      82  75  78 S10       30.19S
DE FUNIAK SPR  FAIR      83  67  56 S7        30.20S
EGLIN AFB      PTSUNNY   84  68  58 S9        30.19F
DESTIN         PTSUNNY   83  72  69 S7        30.19F
HURLBURT       PTSUNNY   82  67  60 VRB7      30.18S
CRESTVIEW      MOSUNNY   86  64  47 S8        30.20S
PENSACOLA      MOSUNNY   84  62  47 SE9       30.18F
$$

!ALZ063-066-252000
...South Alabama...

CITY           SKY/WX    TMP DP  RH WIND       PRES   REMARKS
DOTHAN         PTSUNNY   86  59  39 S10       30.22F
OZARK CAIRNS   CLOUDY    87  64  46 SE9       30.19F
FT RUCKER HELI CLOUDY    87  61  41 SW7       30.18F
RUCKER HELI 3  FAIR      85  61  44 SE5       30.21S
RUCKER HELI 2  NOT AVBL
FLORALA APT    CLOUDY    84  62  47 CALM      30.20F
ANDALUSIA      CLOUDY    87  62  43 VRB5      30.19F
TROY           CLOUDY    86  61  42 S9        30.20F
EUFALA         FAIR      90  59  35 VRB3      30.18F
MOBILE         PTSUNNY   85  62  46 S8G18     30.18F
$$

!GAZ120>161-252000
...Southwest and South Central Georgia...

CITY           SKY/WX    TMP DP  RH WIND       PRES   REMARKS
THOMASVILLE    FAIR      88  59  37 SE5       30.20F
BAINBRIDGE     SUNNY     91  61  35 S6        30.19F HX  91
MOODY AFB      SUNNY     87  56  33 VRB6      30.19F
VALDOSTA       MOSUNNY   88  56  33 VRB5      30.20F
MOULTRIE       MOSUNNY   88  55  33 SE3       30.20F
BLAKELY        MOSUNNY   90  63  40 CALM      30.20F HX  90
ALBANY         PTSUNNY   88  56  33 W6        30.21F
TIFTON         PTSUNNY   85  58  40 SE6       30.20F
FITZGERALD     FAIR      87  57  36 S6        30.23F
CORDELE        FAIR      90  56  30 S5        30.22S
AMERICUS       FAIR      88  52  29 S6        30.23S
HOMERVILLE     FAIR      88  54  31 SE3       30.21S
$$

!GMZ750-755-770-775-252000
...Coastal and Buoy Obs...

STATION/POSITION TIME  TEMP    WIND        PRES    VSBY  WAVE
                       AIR SEA DIR/SP/G                  HT/PER
                 (UTC) (F)     (DEG/KT/KT) (MB)    (MI)  (FT/S)
KEATON BEACH     1900   79     220/  9/  9 1022.1F
CEDAR KEY        1900   82     230/  3/  5 1022.1F
C TOWER          1900   77     120/  9/  9 1023.0R
APALACHICOLA BUO 1850   79 78  130/ 10/ 12 1021.3F         3/ 5
PANAMA CITY BUOY 1850   79 81  120/  6/  8 1021.8F         1/ 3
MOBILE BUOY      1900   78 78  110/ 10/ 12 1021.4F
ORANGE BCH AL BU 1850   78 79  120/  8/ 10 1021.6S         1/ 2
$$




USA.gov is the U.S. government's official web portal to all federal, state and local government web resources and services.